Regional Weather Roundup
Issued by NWS

Home | Current Version | Previous Version | Graphics & Text | Print | Product List | Glossary On
Versions: 1 2 3 4 5 6 7 8 9 10 11 12 13 14 15 16 17 18 19 20 21 22 23 24 25 26 27 28 29 30 31 32 33 34 35 36 37 38 39 40 41 42 43 44 45 46 47 48 49 50
154
ASUS45 KBOU 142310
RWRCO

WEATHER ROUNDUP FOR COLORADO
NATIONAL WEATHER SERVICE DENVER/BOULDER CO
400 PM MST THU DEC 14 2017

NOTE: "FAIR" INDICATES FEW OR NO CLOUDS BELOW 12000 FEET WITH NO
SIGNIFICANT WEATHER AND/OR OBSTRUCTIONS TO VISIBILITY.

COZ001>005-013-030-031-150000-
...NORTHWEST COLORADO...

CITY           SKY/WX    TMP DP  RH WIND       PRES   REMARKS
CRAIG          FAIR      24  15  68 S7        30.32S WCI  16
HAYDEN         FAIR      30  19  63 W7        30.32S WCI  23
MEEKER         FAIR      35  17  47 NE3       30.31S
RABBIT EARS PA LGT SNOW  14  12  92 W8G17     30.22S WCI   3
STEAMBOAT SPGS FAIR      30  11  44 W10       30.28S WCI  21
WALDEN         FAIR      19  10  68 N7        30.27S WCI  10
$$

COZ006>008-011-150000-
...WEST CENTRAL VALLEYS...

CITY           SKY/WX    TMP DP  RH WIND       PRES   REMARKS
GRAND JUNCTION FAIR      45  15  30 NE16      30.28S
MONTROSE       FAIR      42  13  30 NW8       30.29R
EAGLE          FAIR      34  10  37 E8        30.31R WCI  27
RIFLE          FAIR      40  12  32 NW15G23   30.30R
DELTA          FAIR      47  14  26 W13G20    30.24S
NUCLA          FAIR      46  10  23 NE7       30.26R
$$

COZ017>023-064>068-150000-
...SOUTHWEST COLORADO...

CITY           SKY/WX    TMP DP  RH WIND       PRES   REMARKS
DURANGO        FAIR      43  24  47 SW8       30.14S
CORTEZ         FAIR      48  12  23 N21G31    30.15R
PAGOSA SPRINGS MOCLDY    40  22  48 SW13      30.14R
TELLURIDE      FAIR      30  15  53 W10G18    30.23R WCI  21
WOLF CREEK PAS FAIR      23  -8  25 NW13G20   30.22R WCI  11
$$

COZ009-010-012-014-032>034-037-058>063-150000-
...CENTRAL COLORADO...

CITY           SKY/WX    TMP DP  RH WIND       PRES   REMARKS
ASPEN          CLOUDY    32  16  51 W7        30.24R WCI  26
BUENA VISTA    FAIR      32   5  32 NW15G22   30.19R WCI  22
COPPER MTN     NOT AVBL
BERTHOUD PASS  CLOUDY     5  -6  61 N14G39    30.12S WCI -12
COTTONWOOD PAS FAIR      30   7  37 CALM      30.18R
GUNNISON       FAIR      36   8  31 NW13      30.20R
KREMMLING      CLOUDY    34  16  47 N6        30.29R WCI  29
LEADVILLE      FAIR      19   1  45 N21G36    30.19R WCI   3
MONARCH PASS   FAIR      16   9  73 NW9       30.28R WCI   4
SALIDA         FAIR      38   3  22 N20G31    30.24R
SUNLIGHT       FAIR      14  10  85 NW6       30.30R WCI   5
WILKERSON PASS MOCLDY    16   5  62 N12G23    30.17R WCI   3
$$

COZ069>075-150000-
...SAN LUIS VALLEY/SANGRE DE CRISTO MOUNTAINS...

CITY           SKY/WX    TMP DP  RH WIND       PRES   REMARKS
ALAMOSA        FAIR      35  21  56 CALM      30.14R
DEL NORTE      FAIR      32  23  70 E5        30.15R WCI  27
LA VETA PASS   MOCLDY    23  19  86 SW7G17      N/A  WCI  15
SAGUACHE       CLOUDY    34  27  75 S7        30.16R WCI  28
$$

COZ035-036-038>040-150000-
...NORTHERN COLORADO FRONT RANGE...

CITY           SKY/WX    TMP DP  RH WIND       PRES   REMARKS
DENVER INTL AP FAIR      33  21  61 NE5       30.21S WCI  29
DMNS CITY PARK NOT AVBL
AURORA         NOT AVBL
FRONT RANGE AP PTCLDY    34  25  69 N7        30.23R WCI  28
ERIE MUNI ARPT FAIR      40  15  36 CALM      30.26S
BOULDER MUN AP FAIR      37  25  60 S7        30.20S
CENTENNIAL     MOCLDY    29  23  78 SE6       30.22R WCI  23
BROOMFIELD     PTCLDY    37  21  52 CALM      30.22R
FORT COLLINS   FAIR      38  15  39 N15       30.21S
LONGMONT       FAIR      41  22  46 S8        30.23R
$$

COZ041-046-047-076>085-087-088-150000-
...PIKES PEAK/PALMER DIVIDE AND SOUTHERN FOOTHILLS...

CITY           SKY/WX    TMP DP  RH WIND       PRES   REMARKS
COLO. SPRINGS  MOCLDY    32  22  66 NE18      30.21R WCI  20
A. F. ACADEMY  FAIR      29  20  71 N13       30.20R WCI  18
SCHRIEVER AFB  MOCLDY    29  22  76 NE8       30.22R WCI  21
CHEYENNE MTN   SNOWSHWR  29  22  76 NW7       30.14R WCI  22
ELLICOTT         N/A    N/A N/A N/A NE12      30.20R
FALCON         LGT SNOW  28  22  76 N10G23    30.21R WCI  19
FORT CARSON    CLOUDY    34  25  70 CALM      30.20R
LIMON          MOCLDY    29  21  72 N16       30.21S WCI  17
MONUMENT HILL  CLOUDY    23  21  93 N3        30.22R
CANON CITY     CLOUDY    41  27  56 SE8       30.20R
WALSENBURG     FAIR      32  25  74 E3        30.20R
TRINIDAD       CLOUDY    35  22  58 CALM      30.20R
$$

COZ042>045-048>051-090-091-150000-
...NORTHEAST COLORADO...

CITY           SKY/WX    TMP DP  RH WIND       PRES   REMARKS
GREELEY ARPT   FAIR      38  14  37 N25G33    30.21S
AKRON          CLOUDY    32  19  58 N20G28    30.20R WCI  20
BURLINGTON     CLOUDY    36  17  46 N20G36    30.19R
WRAY           CLOUDY    36  25  64 N15G21    30.21R
YUMA           CLOUDY    32  19  59 N22G28    30.21R WCI  19
STERLING       CLOUDY    34  25  69 N7        30.22R WCI  28
HOLYOKE        FAIR      36  25  64 N16       30.21R
FORT MORGAN    CLOUDY    35  19  51 NW16G24   30.22S WCI  25
$$

COZ086-089-092>099-150000-
...SOUTHEAST COLORADO...

CITY           SKY/WX    TMP DP  RH WIND       PRES   REMARKS
PUEBLO         CLOUDY    41  23  48 NE13      30.22R
LA JUNTA       CLOUDY    39  25  57 N15       30.24R
LAMAR          MOCLDY    37  30  75 NW10      30.21R
SPRINGFIELD      N/A     34  29  82 N20G26    30.20R WCI  23
$$




USA.gov is the U.S. government's official web portal to all federal, state and local government web resources and services.